EPWAEPKK

Guest
Details From EPWA - WARSZAWA Okecie
To EPKK - BALICE
Flight Number -
Tags generated
Created
Modified
Stats Distance 133 nm / 246 km
Max Altitude 12,400 ft / 3,780 m
Waypoints 3
Social Downloads 0
Likes 0
Share VATSIM

Download

Looking for another format? Having issues loading an existing format? Contact us
Advertisement - Login to hide

Notes

Basic altitude profile: - Ascent Rate: 2100ft/min - Ascent Speed: 250kts - Cruise Altitude: 18000ft - Cruise Speed: 320kts - Descent Rate: 1800ft/min - Descent Speed: 250kts

Route

EPWA BADEX EPKK

ID Type Via Altitude Latitude Longitude Leg Dist Tot Dist Heading (true) Name
O EPWA APT - 0 ft / 0 m 52.16509˚ 20.96692˚ - 0 nm - WARSZAWA Okecie
BADEX FIX - 12,400 ft / 3,780 m 50.71083˚ 20.10944˚ 93 nm 93 nm 201° / 200° -
O EPKK APT - 0 ft / 0 m 50.07782˚ 19.78550˚ 39 nm 133 nm 198° / 198° BALICE

Altitude Profile

Advertisement - Login to hide

EPWA

Details ICAO EPWA (WAW)
Name WARSZAWA Okecie
Region Poland
Timezone Europe/Warsaw (UTC+2.0)
Stats Elevation 328 ft / 100 m (AMSL)
Location 52.165091° 20.966923°
Runways 2
Magnetic Variation 5.858° E

METAR

EPWA 250730Z 04004KT 360V090 9999 FEW036 21/11 Q1021 NOSIG

Decode

TAF

TAF EPWA 250530Z 2506/2606 05010KT CAVOK TEMPO 2506/2524 SHRA BKN030CB PROB40 TEMPO 2509/2521 VRB15G30KT 3000 TSRA BECMG 2518/2520 VRB04KT TEMPO 2600/2606 4000 SHRA BKN012 BKN020CB

Decode

Departure Runways

ID Width Length Bearing (true) Bearing (mag) Surface Threshold Offset Overrun Length
11 164 ft / 50 m 9,163 ft / 2,793 m 114.64° 108.78° Asphalt 0 ft / 0 m 476 ft / 145 m
15 197 ft / 60 m 12,112 ft / 3,692 m 151.85° 145.99° Asphalt 0 ft / 0 m 0 ft / 0 m
29 164 ft / 50 m 9,163 ft / 2,793 m 294.67° 288.81° Asphalt 1,608 ft / 490 m 0 ft / 0 m
33 197 ft / 60 m 12,112 ft / 3,692 m 331.87° 326.01° Asphalt 0 ft / 0 m 0 ft / 0 m

EPKK

Details ICAO EPKK (KRK)
Name BALICE
Region Poland
Timezone Europe/Warsaw (UTC+2.0)
Stats Elevation 791 ft / 241 m (AMSL)
Location 50.077821° 19.785503°
Runways 1
Magnetic Variation 5.256° E

METAR

EPKK 250730Z 06008KT CAVOK 20/13 Q1019

Decode

TAF

TAF EPKK 250530Z 2506/2606 06008KT CAVOK TEMPO 2512/2519 SCT045CB

Decode

Destination Runways

ID Width Length Bearing (true) Bearing (mag) Surface Threshold Offset Overrun Length
07 197 ft / 60 m 8,343 ft / 2,543 m 77.75° 72.49° Concrete 0 ft / 0 m 0 ft / 0 m
25 197 ft / 60 m 8,343 ft / 2,543 m 257.77° 252.51° Concrete 784 ft / 239 m 0 ft / 0 m

Approach Navaids

Runway Type Ident Frequency Range Bearing (true) Bearing (mag) Slope Elevation
25 Localiser KRW 110.30 MHz 18 nm / 33 km 257.73° 252.48° - 791 ft / 241 m (AMSL)
25 Glidescope KRW 110.30 MHz 10 nm / 19 km 257.76° 252.50° 3.00° 791 ft / 241 m (AMSL)
25 DME KRW 110.30 MHz 18 nm / 33 km - - - 827 ft / 252 m (AMSL)

Popular Alternatives